User: anonymous   Login
Location: Gorze? G�rny
(49.8500°N, 19.5000°E)
Time: 03:46:08
(UTC+00:00)
Language:

Okean 1 - Orbit

View from above orbital plane
View from above orbital plane
View from above satellite
View from above satellite

Ground track
Ground track

The orbit data is extracted from the following two-line orbital elements,

1 19274U 88056A   21207.56933564  .00000138  00000-0  72736-5 0  9995
2 19274  82.5056 131.3622 0010548 225.2945 134.7424 15.06778792800809
Epoch (UTC): 26 July 2021 13:39:50
Eccentricity: 0.0010548
inclination: 82.5056°
perigee height: 539 km
apogee height: 553 km
right ascension of ascending node: 131.3622°
argument of perigee: 225.2945°
revolutions per day: 15.06778792
mean anomaly at epoch: 134.7424°
orbit number at epoch: 80080

The dashed part of the orbit path shows where the satellite is in the earth's shadow,  

DLR